Temp
-7 -7 -7 -7 -7 -8 -8 -8 -8 -8 -8 -8 -8 -8 -8 -8 -8 -8 -8 -8 -8 -8 -8 -8 -8 -8 -8 -8 -8 -8 -8 -8 -8 -9 -9 -8 -9 -9 -9 -9 -9 -9
-7 -7 -7 -7 -7 -7 -8 -8 -8 -8 -8 -8 -8 -8 -8 -8 -8 -8 -8 -8 -8 -8 -8 -8 -8 -8 -8 -8 -8 -8 -8 -8 -8 -9 -9 -8 -8 -9 -9 -9 -9 -9
-7 -7 -7 -7 -7 -7 -7 -7 -7 -7 -8 -8 -8 -8 -8 -8 -8 -8 -8 -8 -8 -8 -8 -8 -8 -8 -8 -8 -9 -8 -8 -8 -8 -9 -9 -8 -9 -9 -9 -9 -9 -9
-7 -7 -7 -7 -7 -7 -7 -7 -7 -7 -7 -7 -8 -8 -8 -8 -8 -8 -8 -8 -8 -8 -9 -9 -9 -9 -9 -9 -9 -8 -8 -8 -9 -9 -9 -9 -9 -9 -9 -9 -9 -9
-6 -7 -7 -7 -7 -7 -7 -7 -7 -7 -8 -8 -8 -8 -8 -8 -8 -8 -8 -8 -8 -8 -9 -9 -9 -9 -9 -9 -9 -9 -9 -9 -9 -9 -9 -9 -9 -9 -9 -9 -9 -9
-7 -7 -7 -7 -7 -7 -7 -7 -8 -8 -8 -8 -8 -8 -8 -8 -8 -8 -8 -8 -8 -8 -8 -8 -8 -9 -9 -9 -9 -9 -9 -9 -9 -9 -9 -9 -9 -9 -9 -9 -9 -9
-7 -7 -7 -7 -7 -7 -7 -8 -8 -8 -8 -8 -8 -8 -8 -8 -8 -8 -8 -8 -8 -8 -8 -8 -8 -8 -9 -9 -9 -9 -9 -9 -9 -9 -9 -9 -9 -9 -9 -9 -9 -9
-7 -7 -7 -8 -8 -8 -8 -8 -8 -8 -8 -8 -8 -8 -8 -8 -8 -8 -8 -8 -8 -8 -8 -8 -8 -8 -9 -9 -9 -9 -9 -9 -9 -9 -9 -9 -9 -9 -9 -9 -9 -9
-8 -8 -8 -8 -8 -8 -8 -8 -8 -9 -9 -8 -8 -9 -9 -9 -9 -9 -9 -9 -8 -8 -8 -9 -9 -9 -9 -9 -9 -9 -9 -9 -9 -9 -9 -9 -9 -9 -9 -9 -9 -9
-9 -9 -9 -9 -9 -9 -9 -9 -9 -9 -9 -9 -9 -9 -9 -9 -9 -9 -9 -9 -9 -9 -9 -9 -9 -9 -9 -9 -9 -9 -9 -9 -9 -9 -9 -9 -9 -9 -9 -9 -9 -9
-10 -10 -10 -10 -10 -10 -10 -10 -10 -10 -10 -10 -10 -10 -10 -10 -10 -10 -10 -10 -10 -10 -10 -10 -10 -10 -9 -9 -9 -9 -9 -9 -9 -9 -9 -9 -9 -9 -10 -10 -10 -10
-10 -10 -10 -10 -10 -10 -10 -10 -10 -10 -10 -10 -10 -10 -10 -10 -10 -10 -10 -10 -10 -10 -10 -10 -10 -10 -10 -10 -10 -10 -10 -10 -10 -10 -10 -10 -10 -10 -10 -10 -10 -10
-11 -11 -11 -11 -11 -11 -11 -11 -11 -11 -11 -11 -11 -11 -11 -11 -11 -11 -11 -11 -11 -11 -11 -11 -11 -11 -11 -11 -11 -11 -11 -11 -11 -11 -11 -11 -11 -11 -11 -11 -11 -11
-12 -12 -12 -12 -12 -12 -12 -12 -12 -12 -11 -11 -11 -11 -11 -11 -11 -11 -11 -11 -11 -11 -11 -11 -11 -11 -11 -12 -12 -12 -12 -12 -12 -12 -12 -12 -11 -12 -12 -12 -12 -12
-13 -13 -13 -13 -13 -13 -12 -12 -12 -12 -12 -12 -12 -12 -12 -12 -12 -12 -12 -12 -12 -12 -12 -12 -12 -12 -12 -12 -12 -12 -12 -12 -12 -12 -12 -12 -12 -12 -12 -12 -12 -12
-13 -13 -13 -13 -13 -13 -13 -13 -13 -13 -13 -13 -12 -12 -12 -12 -12 -12 -12 -12 -12 -12 -12 -12 -12 -12 -12 -13 -13 -13 -13 -13 -13 -13 -13 -13 -13 -13 -13 -13 -13 -13
-14 -13 -13 -13 -13 -13 -13 -13 -13 -13 -13 -13 -13 -13 -13 -13 -13 -13 -13 -13 -13 -13 -13 -13 -13 -13 -13 -13 -13 -13 -13 -13 -13 -13 -13 -13 -13 -13 -13 -13 -13 -13
-14 -14 -14 -14 -14 -14 -13 -13 -14 -14 -14 -14 -13 -13 -13 -13 -13 -13 -13 -13 -13 -13 -13 -14 -14 -14 -14 -14 -14 -14 -14 -14 -14 -14 -14 -14 -14 -14 -14 -14 -14 -14
-14 -14 -14 -14 -14 -14 -14 -14 -14 -14 -14 -14 -14 -14 -14 -14 -14 -14 -14 -14 -14 -14 -14 -14 -14 -15 -15 -15 -15 -15 -15 -15 -15 -14 -14 -14 -14 -14 -14 -14 -14 -14
-15 -15 -15 -15 -15 -15 -15 -15 -15 -15 -15 -15 -15 -15 -15 -15 -15 -15 -15 -15 -15 -15 -15 -15 -15 -15 -15 -15 -15 -15 -15 -15 -15 -15 -15 -15 -14 -14 -14 -14 -14 -14
-15 -15 -15 -15 -15 -15 -15 -15 -15 -15 -15 -15 -15 -15 -15 -15 -15 -15 -15 -15 -15 -15 -15 -15 -15 -16 -16 -16 -15 -15 -15 -15 -15 -15 -15 -15 -15 -15 -15 -15 -15 -15
-16 -16 -16 -16 -16 -16 -16 -16 -16 -16 -16 -16 -16 -16 -16 -16 -16 -16 -16 -16 -16 -16 -16 -16 -16 -16 -16 -16 -16 -16 -16 -16 -16 -16 -15 -15 -15 -15 -15 -15 -15 -16
-17 -17 -17 -17 -17 -17 -16 -16 -16 -16 -16 -16 -16 -16 -16 -16 -17 -16 -16 -16 -16 -16 -16 -16 -16 -16 -16 -16 -16 -16 -16 -16 -16 -16 -16 -16 -16 -16 -16 -16 -16 -17
-18 -17 -17 -17 -17 -17 -17 -17 -17 -17 -17 -17 -17 -17 -17 -17 -17 -17 -17 -17 -17 -17 -17 -16 -16 -16 -17 -17 -17 -17 -17 -17 -17 -17 -17 -17 -17 -17 -17 -17 -17 -18
-18 -18 -18 -18 -18 -18 -18 -18 -18 -18 -18 -18 -18 -18 -17 -17 -17 -17 -17 -17 -18 -18 -18 -17 -17 -17 -18 -18 -18 -18 -18 -18 -18 -18 -18 -18 -18 -18 -18 -18 -18 -18
-19 -19 -18 -18 -18 -18 -18 -18 -18 -18 -18 -18 -18 -18 -18 -18 -18 -18 -18 -18 -18 -19 -19 -19 -18 -18 -19 -19 -19 -19 -19 -19 -19 -19 -19 -19 -19 -19 -19 -19 -19 -19
Height
2996 2997 2998 2999 2999 3000 3001 3002 3003 3004 3005 3005 3006 3007 3008 3009 3010 3010 3010 3011 3011 3011 3012 3013 3013 3014 3014 3015 3015 3016 3016 3017 3017 3018 3019 3019 3020 3020 3020 3021 3022 3022
2992 2993 2994 2994 2995 2996 2997 2998 2998 2999 3000 3000 3001 3002 3003 3004 3004 3005 3005 3006 3006 3006 3007 3007 3008 3008 3008 3009 3009 3010 3011 3011 3012 3013 3013 3014 3014 3015 3015 3016 3016 3016
2989 2989 2990 2990 2991 2992 2993 2993 2994 2994 2994 2995 2996 2997 2998 2999 2999 3000 3000 3000 3000 3001 3002 3002 3002 3003 3003 3003 3003 3004 3004 3005 3006 3007 3008 3008 3009 3009 3010 3010 3010 3010
2986 2986 2987 2987 2988 2988 2988 2988 2989 2989 2989 2990 2991 2992 2993 2994 2994 2994 2995 2995 2995 2996 2997 2997 2997 2997 2998 2998 2998 2998 2998 2999 3000 3001 3001 3002 3002 3003 3004 3004 3004 3004
2983 2983 2984 2984 2984 2984 2984 2984 2984 2985 2985 2986 2986 2987 2988 2988 2989 2989 2990 2990 2991 2991 2992 2992 2992 2992 2993 2993 2993 2993 2993 2993 2994 2994 2995 2995 2996 2997 2997 2998 2998 2998
2980 2980 2980 2980 2980 2980 2980 2980 2980 2981 2981 2981 2982 2982 2983 2983 2984 2985 2985 2986 2986 2987 2987 2987 2987 2988 2988 2988 2988 2988 2988 2988 2989 2989 2988 2989 2990 2990 2991 2991 2991 2992
2977 2977 2977 2977 2977 2977 2977 2977 2977 2977 2977 2977 2977 2977 2978 2979 2979 2980 2981 2981 2982 2982 2982 2983 2983 2983 2984 2984 2983 2983 2983 2984 2984 2983 2983 2983 2984 2984 2984 2984 2985 2985
2973 2973 2974 2974 2974 2974 2974 2974 2974 2973 2973 2973 2973 2973 2974 2974 2975 2975 2976 2976 2977 2977 2977 2978 2978 2979 2979 2979 2978 2979 2979 2979 2979 2978 2978 2978 2978 2978 2978 2978 2978 2979
2969 2970 2970 2970 2970 2970 2970 2970 2970 2970 2970 2969 2969 2970 2970 2970 2970 2970 2971 2971 2971 2972 2972 2973 2973 2973 2973 2973 2973 2973 2973 2973 2973 2973 2973 2973 2972 2973 2973 2972 2972 2972
2965 2966 2966 2966 2966 2966 2966 2966 2966 2966 2966 2966 2966 2966 2965 2965 2965 2965 2965 2966 2966 2966 2967 2967 2967 2967 2967 2967 2968 2967 2967 2967 2967 2967 2967 2966 2966 2967 2966 2966 2965 2965
2962 2962 2962 2962 2962 2962 2962 2962 2962 2962 2962 2961 2961 2961 2961 2960 2960 2960 2960 2960 2960 2960 2961 2961 2961 2961 2961 2961 2961 2961 2961 2961 2961 2960 2960 2960 2960 2960 2959 2959 2958 2959
2958 2958 2958 2958 2958 2958 2958 2958 2957 2957 2957 2957 2957 2956 2956 2956 2955 2955 2954 2954 2954 2954 2954 2955 2955 2955 2955 2955 2955 2954 2954 2954 2954 2954 2954 2953 2953 2953 2952 2952 2952 2952
2955 2954 2954 2954 2954 2953 2953 2953 2953 2952 2952 2952 2952 2952 2951 2951 2951 2950 2950 2949 2948 2948 2948 2948 2948 2948 2947 2947 2947 2947 2947 2947 2947 2947 2947 2947 2946 2946 2946 2945 2945 2945
2951 2950 2950 2949 2949 2949 2949 2948 2948 2948 2947 2947 2947 2946 2946 2946 2946 2945 2945 2944 2943 2942 2942 2941 2941 2940 2940 2940 2940 2939 2939 2939 2939 2939 2939 2939 2939 2939 2939 2938 2938 2938
2946 2946 2945 2945 2944 2944 2944 2943 2943 2943 2942 2942 2942 2941 2941 2940 2940 2940 2939 2938 2938 2937 2936 2935 2934 2934 2933 2932 2932 2931 2931 2931 2931 2931 2931 2931 2931 2931 2931 2931 2931 2930
2941 2941 2940 2940 2939 2939 2938 2938 2938 2937 2937 2936 2935 2935 2934 2934 2933 2932 2932 2932 2931 2930 2929 2928 2927 2927 2926 2925 2924 2924 2923 2923 2922 2923 2923 2923 2923 2923 2922 2922 2923 2923
2937 2936 2935 2935 2934 2933 2933 2932 2932 2931 2930 2930 2929 2928 2927 2927 2926 2925 2924 2924 2923 2923 2922 2922 2921 2920 2918 2918 2917 2916 2915 2914 2914 2914 2914 2914 2914 2914 2914 2914 2914 2914
2932 2931 2930 2929 2929 2928 2927 2927 2926 2925 2924 2923 2922 2922 2921 2920 2919 2918 2918 2917 2916 2916 2915 2914 2914 2912 2911 2911 2910 2909 2908 2907 2906 2906 2906 2906 2906 2905 2906 2906 2906 2906
2926 2925 2924 2923 2922 2921 2920 2920 2919 2918 2917 2916 2915 2914 2914 2913 2912 2911 2910 2910 2909 2908 2907 2907 2906 2905 2904 2903 2902 2901 2900 2899 2899 2898 2898 2898 2898 2898 2897 2897 2897 2897
2918 2917 2916 2915 2914 2913 2912 2911 2911 2910 2909 2908 2907 2906 2906 2905 2904 2904 2903 2902 2901 2900 2900 2899 2899 2897 2896 2896 2895 2894 2893 2892 2892 2891 2890 2890 2890 2889 2889 2889 2889 2888
2911 2910 2909 2908 2907 2906 2904 2903 2902 2902 2901 2900 2899 2898 2897 2896 2896 2895 2895 2894 2893 2892 2891 2891 2891 2889 2888 2888 2887 2886 2885 2884 2883 2883 2882 2882 2881 2881 2880 2880 2880 2879
2904 2903 2902 2901 2900 2899 2898 2897 2896 2895 2893 2892 2892 2891 2890 2888 2887 2887 2886 2886 2885 2884 2883 2883 2883 2881 2879 2879 2878 2877 2876 2875 2874 2874 2873 2873 2873 2872 2871 2871 2871 2870
2897 2896 2895 2894 2893 2892 2891 2890 2888 2887 2886 2885 2884 2883 2882 2881 2880 2879 2878 2876 2876 2876 2874 2874 2874 2873 2870 2870 2869 2867 2866 2866 2865 2865 2864 2864 2864 2864 2863 2862 2862 2861
2890 2888 2887 2885 2884 2883 2882 2881 2880 2879 2878 2876 2875 2874 2873 2872 2871 2871 2870 2868 2867 2866 2865 2864 2865 2864 2862 2861 2860 2858 2857 2856 2856 2855 2855 2855 2855 2855 2855 2854 2854 2853
2881 2880 2878 2877 2875 2874 2872 2871 2870 2869 2868 2867 2866 2865 2864 2863 2862 2861 2861 2860 2858 2857 2856 2855 2854 2854 2853 2852 2851 2850 2848 2847 2846 2846 2846 2847 2847 2847 2847 2846 2846 2845
2873 2872 2870 2868 2866 2865 2864 2862 2861 2860 2859 2858 2857 2855 2854 2853 2852 2851 2851 2851 2849 2848 2847 2846 2845 2845 2844 2843 2842 2841 2840 2838 2837 2837 2837 2837 2838 2838 2838 2838 2838 2837
Wind_Speed
30 30 31 31 32 32 33 33 34 35 35 36 36 37 37 37 36 37 38 38 39 39 40 40 41 41 42 42 43 43 44 44 44 44 44 45 45 44 44 44 44 44
28 29 31 31 32 32 33 33 34 35 36 36 36 37 37 37 37 37 38 38 39 40 40 41 41 42 43 43 44 44 45 45 45 45 46 46 46 47 47 47 46 47
26 28 29 30 31 31 32 33 34 35 36 36 37 36 36 36 36 36 37 38 39 39 40 40 41 42 42 43 44 44 45 45 45 45 46 47 47 48 48 48 48 49
24 26 27 29 30 31 32 33 34 35 36 36 36 36 35 35 36 36 37 37 38 38 38 39 40 41 41 42 43 44 45 45 45 45 46 47 47 48 48 48 49 50
21 24 26 27 29 30 32 33 35 35 36 36 35 35 35 35 35 36 36 37 37 37 38 38 39 40 40 41 43 44 44 45 45 45 46 46 47 47 48 48 49 50
21 23 25 26 28 30 31 33 33 34 34 34 34 34 34 34 34 35 35 36 36 37 37 37 38 38 39 40 41 42 43 44 44 45 45 46 46 46 47 48 49 49
21 24 26 27 28 29 30 30 30 31 32 32 33 33 33 33 33 33 33 34 34 35 35 36 36 36 36 37 39 40 41 42 43 44 45 45 46 46 47 47 48 48
22 24 26 28 29 30 30 30 30 31 31 32 33 32 32 32 32 32 32 32 33 33 34 34 34 34 35 36 37 38 38 39 40 42 43 44 45 46 47 47 47 48
22 24 26 27 28 29 29 29 30 30 30 31 31 31 31 31 31 31 32 32 33 33 33 33 34 34 35 36 37 38 38 39 40 41 43 44 45 45 46 46 47 48
23 24 25 27 27 28 28 28 28 28 28 29 29 29 30 30 30 31 31 32 33 33 33 34 34 35 36 37 38 39 40 41 42 43 44 44 45 46 46 47 48 48
24 25 26 27 28 28 28 28 28 28 29 29 29 29 30 30 31 32 32 33 33 34 34 35 36 36 37 38 39 40 41 42 43 44 45 46 47 47 47 48 48 49
26 26 27 28 29 29 29 29 29 30 30 31 31 31 31 32 32 33 34 35 35 36 36 37 38 38 39 40 41 42 43 43 45 46 46 47 48 49 49 49 50 49
26 27 27 28 28 29 29 30 30 31 31 32 33 33 34 34 34 35 36 37 37 38 39 39 40 41 42 42 43 44 45 45 46 47 48 49 50 50 51 51 51 51
27 27 27 28 28 29 30 30 31 32 32 33 34 35 35 36 36 37 38 39 39 40 41 42 43 44 44 45 46 47 47 48 49 49 50 50 51 51 52 53 53 53
27 27 28 29 29 30 31 32 32 33 34 35 36 37 38 38 39 39 40 40 41 42 43 44 45 46 47 48 48 49 49 50 50 51 51 51 52 52 53 53 54 54
29 29 30 31 32 32 33 34 35 36 36 37 38 39 40 41 41 42 43 43 44 44 45 46 47 48 48 49 50 50 51 51 51 51 52 52 52 53 53 53 53 53
31 32 33 34 34 35 36 37 38 38 39 40 41 41 42 43 44 45 45 46 47 47 47 48 48 49 50 50 51 51 51 52 52 52 52 52 53 53 53 53 53 53
34 35 36 37 38 38 39 40 40 41 41 42 42 43 44 45 45 46 47 47 48 49 49 49 49 50 50 51 51 51 52 52 53 53 53 53 53 53 53 53 53 53
38 39 39 40 41 41 42 42 42 43 43 44 44 45 45 46 46 47 48 48 49 50 50 50 50 50 51 51 52 52 52 52 53 53 54 54 54 55 55 55 55 56
41 42 43 43 44 44 45 45 46 46 46 47 48 48 49 49 49 49 49 50 51 51 52 51 51 51 52 52 52 52 53 53 54 55 55 56 56 57 57 57 57 58
45 45 46 46 47 48 48 49 49 50 50 50 51 51 52 52 52 51 51 51 51 52 53 52 52 52 53 53 53 54 54 55 55 56 57 57 58 59 59 59 59 59
47 48 48 49 49 50 51 51 51 52 52 52 52 52 52 53 53 53 53 52 52 53 53 53 53 54 54 55 55 55 56 56 57 57 58 58 59 59 60 59 59 59
48 49 49 50 50 51 51 51 52 52 52 52 52 52 52 52 53 53 53 54 54 54 54 55 54 55 56 56 56 57 57 57 58 58 58 58 58 58 58 58 57 57
49 50 51 51 51 52 52 52 52 52 52 53 53 53 53 53 53 54 54 55 55 55 55 56 56 56 55 55 55 56 57 57 57 57 57 57 57 56 55 55 55 54
51 52 52 53 53 53 53 54 54 53 54 54 54 54 55 55 55 55 54 54 54 54 55 55 55 55 54 53 53 53 54 55 56 56 56 55 55 54 53 53 53 52
53 53 54 54 54 55 55 55 55 55 55 55 55 55 55 55 54 54 54 54 53 53 53 53 54 53 52 52 52 52 52 53 54 55 55 54 54 53 53 53 52 52
Wind_Direction
242 242 241 241 241 241 241 241 241 242 243 243 243 243 242 243 243 243 245 246 246 246 246 246 247 247 247 247 247 247 248 249 250 250 251 252 253 254 255 255 255 256
241 241 241 241 241 242 242 242 243 243 244 244 243 243 243 243 243 243 244 245 246 246 246 247 247 248 249 249 249 250 250 250 251 252 253 254 254 255 255 256 257 257
240 240 241 241 241 242 242 242 243 243 243 243 243 243 243 243 243 243 243 244 244 245 246 247 248 249 250 251 252 252 253 253 253 253 254 255 255 256 256 257 258 258
242 242 241 241 241 241 241 242 242 242 243 243 243 243 243 242 242 242 242 242 243 244 245 246 247 248 249 251 252 254 254 255 255 255 255 256 256 257 257 258 258 259
250 248 246 244 242 241 241 241 242 242 243 244 244 244 243 242 242 242 242 242 243 244 244 245 245 246 248 249 251 253 255 256 256 257 257 257 257 257 258 258 258 259
259 256 254 251 248 245 244 244 244 245 245 246 246 246 246 245 244 244 244 244 245 245 246 246 246 247 248 249 251 252 254 255 257 258 259 259 259 259 259 259 259 259
264 262 259 257 255 253 251 249 249 248 248 249 249 249 249 249 248 248 247 248 247 248 248 249 249 250 250 251 252 253 254 255 257 258 259 261 261 261 261 261 261 261
264 264 262 260 258 257 256 254 252 251 251 251 251 251 251 252 251 251 251 251 251 251 252 252 253 254 254 255 255 256 256 257 258 258 259 260 261 262 262 262 263 263
260 261 261 260 258 258 258 257 256 255 255 255 256 256 256 256 256 256 255 255 255 255 256 257 257 258 259 259 260 260 261 261 261 261 262 262 262 263 264 264 264 264
255 256 257 256 256 255 255 255 256 256 256 257 258 259 260 261 262 262 261 261 261 261 261 261 262 262 262 263 263 263 264 265 265 266 266 266 266 267 266 266 266 266
252 252 253 253 252 252 252 253 253 254 255 256 257 259 260 262 264 265 265 265 265 266 265 265 266 266 266 266 266 267 267 267 268 269 269 269 270 269 269 269 268 268
252 251 251 251 251 252 252 253 254 255 256 257 259 260 261 263 265 266 268 269 269 270 270 270 270 270 270 270 270 270 270 270 270 270 270 270 270 270 270 270 269 269
255 255 254 254 255 255 256 257 258 259 260 261 262 263 264 265 267 269 270 271 273 273 274 274 274 273 273 273 272 272 272 271 271 271 270 270 270 270 269 269 269 269
256 257 258 258 258 259 260 261 262 263 263 264 265 266 267 268 269 271 272 273 274 275 275 275 275 275 274 274 273 273 272 272 271 270 270 269 269 269 268 268 268 268
256 257 259 259 260 261 262 263 264 265 266 267 268 269 270 271 271 272 272 273 273 274 275 275 274 274 274 274 273 273 272 272 271 270 269 269 269 268 267 267 267 267
259 260 261 262 263 264 265 266 268 268 269 270 271 272 273 273 274 275 275 275 274 274 275 274 274 274 274 273 273 272 271 271 270 270 270 269 269 268 268 267 267 267
264 265 266 267 267 268 269 270 271 272 273 273 274 274 275 275 276 276 276 276 276 275 275 274 273 273 272 272 271 271 271 270 270 270 270 269 269 269 268 268 268 268
267 267 268 269 269 270 270 271 272 273 273 274 274 275 275 275 275 275 275 275 275 274 273 272 272 271 270 270 270 270 270 270 270 270 269 269 269 270 270 269 269 269
270 270 271 272 273 273 274 275 275 276 276 276 276 275 275 275 274 274 274 273 273 272 272 271 270 269 269 268 268 268 268 269 269 269 269 269 269 270 270 271 271 271
276 277 278 278 279 279 279 280 280 279 279 279 279 278 277 276 275 274 273 272 272 271 270 269 268 268 268 267 267 267 268 268 269 269 270 270 271 271 271 272 272 272
281 281 281 282 282 281 282 282 281 281 281 280 279 279 278 277 276 275 273 272 271 270 270 269 268 268 268 268 268 269 269 270 270 271 271 271 272 272 273 273 273 273
280 280 280 281 280 280 280 280 280 280 279 279 278 277 277 276 276 275 274 272 271 271 270 270 270 270 271 271 271 271 272 272 272 272 272 272 272 273 273 273 273 273
282 281 281 281 280 280 280 279 279 279 278 278 277 276 276 275 275 275 275 274 273 273 272 272 272 272 273 273 273 273 273 273 272 272 272 272 272 272 272 272 272 272
284 284 283 283 283 282 281 281 280 280 279 279 278 277 277 276 275 275 275 276 276 275 275 274 274 273 274 274 274 274 273 273 272 272 271 271 271 271 271 271 271 271
285 285 285 284 284 283 283 282 282 281 281 280 280 279 279 278 278 277 277 277 277 276 276 276 275 274 274 273 273 272 272 272 272 271 271 271 270 270 270 269 269 269
286 286 285 285 285 284 284 284 283 283 282 282 281 281 280 279 279 278 278 277 276 276 276 276 275 275 274 273 272 271 271 271 271 271 271 270 270 269 269 268 268 268